Location: Newark
(36.0797°N, 3.9744°E)
Time: 06:59:52
(UTC+00:00)

Vanguard 2 - Pass Details

Date: 10 December 2019
Orbit: 553 x 2938 km, 32.9° (Epoch: 27 January)

Event Time Altitude Azimuth Distance (km) Brightness Sun altitude
Exits shadow 03:53:18 50° 258° (WSW) 3,484 10.3 -33.6°
Maximum altitude 03:59:58 80° 182° (S) 2,915 10.2 -32.3°
Drops below altitude 10° 04:15:36 10° 98° (E) 4,962 12.6 -29.1°
Sets 04:18:55 0° 98° (E) 5,717 13.2 -28.5°
